THOR ABLESTAR DEB, 159

Orbit data source: Space-Track

THOR ABLESTAR DEB, 159 is space debris in LEO originally from a launch on Thu, 29 Jun 1961 UTC launched from the Air Force Eastern Test Range (AFETR). Debris objects in space refer to the collection of defunct objects orbiting the Earth. Examples of debris include non-operational satellites, rocket bodies, and fragments generated from explosions, collisions, or faulty payload assembly.

Loading next visibility...
Identifier
159, 1961-015AV
Orbit
LEO
Country
Flag of USUS
Related business
Manufacturer
Unknown
Mission
Spacecraft
Bus & Motor
Unknown
Mass
Unknown
Launch date (UTC)
1961-06-29 (65 years ago)
Launch vehicle
Unknown
Launch site
Air Force Eastern Test Range (AFETR)
Object type
Payload
Rocket body
Debris
Shape & HBR
Unknown shape, 0.2 m
Radar Cross Section
Medium (>0.1 m² and <1 m²)

Expand to show TLE details & history
Last TLE update: 14 hours ago

TLE from 14 hours ago
0 THOR ABLESTAR DEB
1 00159U 61015AV  26095.12409970  .00000345  00000-0  95396-3 0  9999
2 00159  65.5282  36.0920 0367413 188.2955 171.1887 13.03041780 71331
Epoch: 2026-04-05T02:58Z
TLE epoch observation values (Epoch: 2026-04-05T02:58:42.214Z)
Latitude
0.00001°
Longitude
157.98208°
Altitude
1,529.312 km
Speed
6.971 km/s
True Right ascension
02h 24m 22s
True Declination
0° 00' 00"
Sunlit
Object was in daylight at epoch
Visualization orbit readout
Latitude
Unknown
Longitude
Unknown
Altitude
Unknown
Speed
Unknown
Apparent Right ascension
Unknown
Apparent Declination
Unknown
Sunlit
N/A
Visualization observer readout
Local Sidereal Time
22:29:49
Azimuth
Unknown
Elevation
Unknown
Doppler factor
Unknown
Orbital elements
Apogee altitude
1,529.02 km
Perigee altitude
968.573 km
Semi-major axis
7,626.934 km
Eccentricity
0.03674
Inclination
65.5282°
RAAN
36.092°
Arg. of periapsis
188.2955°
True anomaly
171.80557°
Mean anomaly
171.1887°
Eccentric anomaly
171.49986°
Mean motion
3.2585 °/min
Orbital period
110.48 mins
BSTAR
0.00095396
Loading maneuver chart data...
Computing Atmospheric mass density...
Loading historical data...
Loading historical data...
Loading historical data...
Loading historical data...
Loading historical data...
Loading historical data...
Loading historical data...

Documentation

Showing up to 5 results
|